Torna al catalogo

STARLINK-11441

AttivoComunicazioniVLEO
NORAD 62413·PAYLOAD·🇺🇸 United States

Lanciato Dec 23, 2024 da Cape Canaveral Space Force Station

Loading…

Prossimi Passaggi (prossime 24 ore)

TLE

AggiornatoSource: CelesTrak SupGP

Epoca: Sep 14, 2026, 22:21 UTC

1 62413C 24249E   26257.93173611  .00003454  00000+0  26839-4 0  2574
2 62413  43.0006 106.6802 0001699 262.4859 208.3418 15.70827450    11

Traccia STARLINK-11441 in tempo reale con AllMySat

Download on the App Store